This demonstration page uses our WeatherBlox Daily Observations layout. Learn more.

Left ArrowRight Arrow

Hourly Observations for May 2, 2019

Temp ( °F °C ) Dew Point ( °F °C ) Humidity (%) Winds ( mph kmh ) Pressure ( in mb ) Visibility ( mi km ) Precip ( " mm )
6:30 am 06:30 Cloudy with Fog 59 15 55 13 88 88 Calm 30.10 1019 0 0 N/A
6:45 am 06:45 Cloudy with Fog 59 15 57 14 94 94 Calm 30.09 1019 0 0 N/A
7:45 am 07:45 Cloudy with Fog 59 15 57 14 94 94 Calm 30.12 1020 1 1 N/A
8:45 am 08:45 Partly Cloudy with Fog 61 16 59 15 94 94 Calm 30.10 1019 0 0 N/A
9:35 am 09:35 Cloudy with Mist and Fog 63 17 59 15 88 88 SSE 9 15 30.10 1019 2 3 N/A
9:45 am 09:45 Cloudy with Mist and Fog 63 17 59 15 88 88 S 10 17 30.11 1020 3 4 N/A
10:00 am 10:00 Cloudy with Mist and Fog 63 17 59 15 88 88 SSE 9 15 30.11 1020 4 6 N/A
10:15 am 10:15 Cloudy 63 17 59 15 88 88 SSE 9 15 30.11 1020 7 11 N/A
10:55 am 10:55 Cloudy 63 17 61 16 94 94 W 13 20 30.13 1020 7 11 N/A
11:35 am 11:35 Cloudy with Light Rain 63 17 59 15 88 88 SW 5 7 30.16 1021 5 8 N/A
11:50 am 11:50 Cloudy with Light Rain 63 17 59 15 88 88 SSW 5 7 30.16 1021 3 5 N/A
12:45 pm 12:45 Cloudy with Light Rain 64 18 61 16 88 88 Calm 30.13 1020 4 6 N/A
1:10 pm 13:10 Partly Cloudy 64 18 61 16 88 88 Calm 30.11 1020 7 11 N/A
1:45 pm 13:45 Mostly Sunny 66 19 59 15 78 78 Calm 30.10 1019 10 16 N/A
2:45 pm 14:45 Partly Cloudy 70 21 61 16 73 73 SW 5 7 30.09 1019 10 16 N/A
3:45 pm 15:45 Partly Cloudy 68 20 59 15 73 73 SW 12 19 30.07 1018 10 16 N/A
4:45 pm 16:45 Partly Cloudy 70 21 57 14 64 64 WSW 7 11 30.05 1018 10 16 N/A
5:45 pm 17:45 Partly Cloudy 70 21 57 14 64 64 SW 12 19 30.03 1017 10 16 N/A
6:45 pm 18:45 Partly Cloudy 70 21 57 14 64 64 S 8 13 30.03 1017 10 16 N/A
7:45 pm 19:45 Partly Cloudy 68 20 57 14 69 69 SSW 7 11 30.02 1017 10 16 N/A
8:45 pm 20:45 Partly Cloudy 66 19 57 14 73 73 Calm 30.03 1017 10 16 N/A
9:45 pm 21:45 Mostly Clear 61 16 57 14 88 88 Calm 30.03 1017 10 16 N/A

Powered by AerisWeather